Regional Weather Roundup
Issued by NWS Nashville, TN

Home | Current Version | Previous Version | Text Only | Print | Product List | Glossary On
Versions: 1 2 3 4 5 6 7 8 9 10 11 12 13 14 15 16 17 18 19 20 21 22 23 24 25 26 27 28 29 30 31 32 33 34 35 36 37 38 39 40 41 42 43 44 45 46 47 48 49 50
000
ASUS44 KOHX 311315
RWROHX
MIDDLE TENNESSEE HOURLY WEATHER ROUNDUP
NATIONAL WEATHER SERVICE NASHVILLE TN
800 AM CDT THU JUL 31 2014

NOTE: "FAIR" INDICATES FEW OR NO CLOUDS BELOW 12,000 FEET WITH
NO SIGNIFICANT WEATHER AND/OR OBSTRUCTIONS TO VISIBILITY.

* THESE REPORTS ARE NOT UNDER NWS QUALITY CONTROL AND MAY NOT
  REPORT WEATHER SUCH AS PRECIPITATION AND FOG.


TNZ005>011-023>034-057-059-062>066-078-080-311400
...NORTHERN MIDDLE TENNESSEE...

CITY           SKY/WX    TMP DP  RH WIND       PRES   REMARKS
CLARKSVILLE    MOSUNNY   66  61  84 CALM      30.11R
CROSSVILLE     CLOUDY    63  59  87 NE3       30.15R
GALLATIN         N/A     63  61  93 CALM      30.12R
DICKSON        MOSUNNY   64  59  82 CALM      30.11R
LEBANON        CLOUDY    63  58  83 CALM      30.10R
LIVINGSTON       N/A     65  59  81 CALM      30.13
NASHVILLE      CLOUDY    65  61  87 CALM      30.12R
WEST NASHVILLE   N/A     63  63 100 CALM      30.12R
PORTLAND       CLOUDY    63  61  94 CALM      30.11R
SMYRNA         CLOUDY    65  65 100 CALM      30.13R
SPARTA         SUNNY     63  61  94 CALM      30.12R
$$
TNZ056-058-060-061-075>077-079-093>097-311400
...SOUTHERN MIDDLE TENNESSEE...

CITY           SKY/WX    TMP DP  RH WIND       PRES   REMARKS
COLUMBIA       SUNNY     66  64  94 CALM      30.10R
FAYETTEVILLE   SUNNY     64  59  82 NE10      30.11S
LEWISBURG      CLOUDY    65  61  87 CALM      30.11R
MCMINNVILLE    SUNNY     64  64 100 CALM      30.12S
MURFREESBORO   CLOUDY    65  62  90 CALM      30.11R
SHELBYVILLE    SUNNY     64  63  94 CALM      30.12S
TULLAHOMA      SUNNY     66  61  82 CALM      30.13R
WINCHESTER     SUNNY     63  61  94 CALM      30.12R
$$


...KEY TO REMARKS...
VSB - VISIBILITY IN MILES
WCI - WIND CHILL INDEX
HX  - HEAT INDEX




USA.gov is the U.S. government's official web portal to all federal, state and local government web resources and services.